Year,Month,Day,Hour,Minute,Value (Times are PST for temperature in C)
2006,09,28,00,00,14.70
2006,09,28,00,01,14.70
2006,09,28,00,02,14.70
2006,09,28,00,03,14.70
2006,09,28,00,04,14.70
2006,09,28,00,05,14.70
2006,09,28,00,06,14.60
2006,09,28,00,07,14.60
2006,09,28,00,08,14.60
2006,09,28,00,09,14.60
2006,09,28,00,10,14.60
2006,09,28,00,11,14.60
2006,09,28,00,12,14.60
2006,09,28,00,13,14.60
2006,09,28,00,14,14.50
2006,09,28,00,15,14.50
2006,09,28,00,16,14.50
2006,09,28,00,17,14.50
2006,09,28,00,18,14.50
2006,09,28,00,19,14.50
2006,09,28,00,20,14.50
2006,09,28,00,21,14.50
2006,09,28,00,22,14.50
2006,09,28,00,23,14.50
2006,09,28,00,24,14.50
2006,09,28,00,25,14.50
2006,09,28,00,26,14.50
2006,09,28,00,27,14.50
2006,09,28,00,28,14.50
2006,09,28,00,29,14.40
2006,09,28,00,30,14.50
2006,09,28,00,31,14.40
2006,09,28,00,32,14.50
2006,09,28,00,33,14.50
2006,09,28,00,34,14.50
2006,09,28,00,35,14.50
2006,09,28,00,36,14.50
2006,09,28,00,37,14.50
2006,09,28,00,38,14.50
2006,09,28,00,39,14.60
2006,09,28,00,40,14.60
2006,09,28,00,41,14.60
2006,09,28,00,42,14.60
2006,09,28,00,43,14.60
2006,09,28,00,44,14.60
2006,09,28,00,45,14.50
2006,09,28,00,46,14.50
2006,09,28,00,47,14.50
2006,09,28,00,48,14.40
2006,09,28,00,49,14.40
2006,09,28,00,50,14.30
2006,09,28,00,51,14.20
2006,09,28,00,52,14.20
2006,09,28,00,53,14.10
2006,09,28,00,54,14.10
2006,09,28,00,55,14.10
2006,09,28,00,56,14.00
2006,09,28,00,57,14.00
2006,09,28,00,58,13.90
2006,09,28,00,59,13.90
2006,09,28,01,00,13.90
2006,09,28,01,01,13.80
2006,09,28,01,02,13.80
2006,09,28,01,03,13.80
2006,09,28,01,04,13.80
2006,09,28,01,05,13.70
2006,09,28,01,06,13.70
2006,09,28,01,07,13.70
2006,09,28,01,08,13.60
2006,09,28,01,09,13.60
2006,09,28,01,10,13.60
2006,09,28,01,11,13.60
2006,09,28,01,12,13.60
2006,09,28,01,13,13.50
2006,09,28,01,14,13.50
2006,09,28,01,15,13.50
2006,09,28,01,16,13.40
2006,09,28,01,17,13.40
2006,09,28,01,18,13.40
2006,09,28,01,19,13.40
2006,09,28,01,20,13.40
2006,09,28,01,21,13.30
2006,09,28,01,22,13.30
2006,09,28,01,23,13.30
2006,09,28,01,24,13.30
2006,09,28,01,25,13.30
2006,09,28,01,26,13.30
2006,09,28,01,27,13.30
2006,09,28,01,28,13.30
2006,09,28,01,29,13.30
2006,09,28,01,30,13.30
2006,09,28,01,31,13.20
2006,09,28,01,32,13.20
2006,09,28,01,33,13.20
2006,09,28,01,34,13.10
2006,09,28,01,35,13.10
2006,09,28,01,36,13.00
2006,09,28,01,37,13.00
2006,09,28,01,38,12.90
2006,09,28,01,39,12.90
2006,09,28,01,40,12.90
2006,09,28,01,41,13.00
2006,09,28,01,42,13.00
2006,09,28,01,43,13.00
2006,09,28,01,44,13.00
2006,09,28,01,45,13.00
2006,09,28,01,46,13.00
2006,09,28,01,47,13.00
2006,09,28,01,48,12.90
2006,09,28,01,49,12.90
2006,09,28,01,50,12.90
2006,09,28,01,51,12.90
2006,09,28,01,52,12.90
2006,09,28,01,53,12.90
2006,09,28,01,54,12.90
2006,09,28,01,55,12.90
2006,09,28,01,56,12.90
2006,09,28,01,57,12.90
2006,09,28,01,58,12.90
2006,09,28,01,59,12.80
2006,09,28,02,00,12.80
2006,09,28,02,01,12.90
2006,09,28,02,02,12.90
2006,09,28,02,03,12.90
2006,09,28,02,04,12.90
2006,09,28,02,05,12.80
2006,09,28,02,06,12.80
2006,09,28,02,07,12.80
2006,09,28,02,08,12.80
2006,09,28,02,09,12.80
2006,09,28,02,10,12.70
2006,09,28,02,11,12.70
2006,09,28,02,12,12.70
2006,09,28,02,13,12.70
2006,09,28,02,14,12.60
2006,09,28,02,15,12.60
2006,09,28,02,16,12.60
2006,09,28,02,17,12.60
2006,09,28,02,18,12.70
2006,09,28,02,19,12.70
2006,09,28,02,20,12.70
2006,09,28,02,21,12.70
2006,09,28,02,22,12.70
2006,09,28,02,23,12.80
2006,09,28,02,24,12.80
2006,09,28,02,25,12.80
2006,09,28,02,26,12.80
2006,09,28,02,27,12.80
2006,09,28,02,28,12.70
2006,09,28,02,29,12.60
2006,09,28,02,30,12.50
2006,09,28,02,31,12.40
2006,09,28,02,32,12.30
2006,09,28,02,33,12.30
2006,09,28,02,34,12.30
2006,09,28,02,35,12.30
2006,09,28,02,36,12.40
2006,09,28,02,37,12.40
2006,09,28,02,38,12.40
2006,09,28,02,39,12.50
2006,09,28,02,40,12.50
2006,09,28,02,41,12.50
2006,09,28,02,42,12.50
2006,09,28,02,43,12.60
2006,09,28,02,44,12.60
2006,09,28,02,45,12.60
2006,09,28,02,46,12.60
2006,09,28,02,47,12.60
2006,09,28,02,48,12.60
2006,09,28,02,49,12.60
2006,09,28,02,50,12.60
2006,09,28,02,51,12.60
2006,09,28,02,52,12.70
2006,09,28,02,53,12.70
2006,09,28,02,54,12.70
2006,09,28,02,55,12.60
2006,09,28,02,56,12.60
2006,09,28,02,57,12.60
2006,09,28,02,58,12.60
2006,09,28,02,59,12.60
2006,09,28,03,00,12.50
2006,09,28,03,01,12.50
2006,09,28,03,02,12.50
2006,09,28,03,03,12.50
2006,09,28,03,04,12.50
2006,09,28,03,05,12.50
2006,09,28,03,06,12.50
2006,09,28,03,07,12.50
2006,09,28,03,08,12.50
2006,09,28,03,09,12.40
2006,09,28,03,10,12.40
2006,09,28,03,11,12.40
2006,09,28,03,12,12.40
2006,09,28,03,13,12.40
2006,09,28,03,14,12.40
2006,09,28,03,15,12.40
2006,09,28,03,16,12.40
2006,09,28,03,17,12.40
2006,09,28,03,18,12.40
2006,09,28,03,19,12.40
2006,09,28,03,20,12.40
2006,09,28,03,21,12.40
2006,09,28,03,22,12.40
2006,09,28,03,23,12.40
2006,09,28,03,24,12.40
2006,09,28,03,25,12.40
2006,09,28,03,26,12.40
2006,09,28,03,27,12.40
2006,09,28,03,28,12.40
2006,09,28,03,29,12.40
2006,09,28,03,30,12.50
2006,09,28,03,31,12.40
2006,09,28,03,32,12.40
2006,09,28,03,33,12.40
2006,09,28,03,34,12.40
2006,09,28,03,35,12.40
2006,09,28,03,36,12.40
2006,09,28,03,37,12.40
2006,09,28,03,38,12.30
2006,09,28,03,39,12.30
2006,09,28,03,40,12.30
2006,09,28,03,41,12.30
2006,09,28,03,42,12.30
2006,09,28,03,43,12.20
2006,09,28,03,44,12.20
2006,09,28,03,45,12.20
2006,09,28,03,46,12.20
2006,09,28,03,47,12.20
2006,09,28,03,48,12.10
2006,09,28,03,49,12.10
2006,09,28,03,50,12.10
2006,09,28,03,51,12.10
2006,09,28,03,52,12.00
2006,09,28,03,53,12.00
2006,09,28,03,54,12.00
2006,09,28,03,55,11.90
2006,09,28,03,56,11.90
2006,09,28,03,57,11.90
2006,09,28,03,58,11.90
2006,09,28,03,59,11.80
2006,09,28,04,00,11.80
2006,09,28,04,01,11.80
2006,09,28,04,02,11.80
2006,09,28,04,03,11.80
2006,09,28,04,04,11.80
2006,09,28,04,05,11.80
2006,09,28,04,06,11.80
2006,09,28,04,07,11.80
2006,09,28,04,08,11.80
2006,09,28,04,09,11.80
2006,09,28,04,10,11.80
2006,09,28,04,11,11.80
2006,09,28,04,12,11.80
2006,09,28,04,13,11.80
2006,09,28,04,14,11.80
2006,09,28,04,15,11.80
2006,09,28,04,16,11.80
2006,09,28,04,17,11.80
2006,09,28,04,18,11.70
2006,09,28,04,19,11.70
2006,09,28,04,20,11.70
2006,09,28,04,21,11.70
2006,09,28,04,22,11.70
2006,09,28,04,23,11.70
2006,09,28,04,24,11.70
2006,09,28,04,25,11.70
2006,09,28,04,26,11.70
2006,09,28,04,27,11.70
2006,09,28,04,28,11.60
2006,09,28,04,29,11.60
2006,09,28,04,30,11.60
2006,09,28,04,31,11.60
2006,09,28,04,32,11.60
2006,09,28,04,33,11.60
2006,09,28,04,34,11.60
2006,09,28,04,35,11.60
2006,09,28,04,36,11.60
2006,09,28,04,37,11.60
2006,09,28,04,38,11.60
2006,09,28,04,39,11.60
2006,09,28,04,40,11.60
2006,09,28,04,41,11.60
2006,09,28,04,42,11.60
2006,09,28,04,43,11.50
2006,09,28,04,44,11.50
2006,09,28,04,45,11.50
2006,09,28,04,46,11.40
2006,09,28,04,47,11.40
2006,09,28,04,48,11.40
2006,09,28,04,49,11.40
2006,09,28,04,50,11.40
2006,09,28,04,51,11.40
2006,09,28,04,52,11.40
2006,09,28,04,53,11.40
2006,09,28,04,54,11.30
2006,09,28,04,55,11.30
2006,09,28,04,56,11.30
2006,09,28,04,57,11.30
2006,09,28,04,58,11.30
2006,09,28,04,59,11.40
2006,09,28,05,00,11.40
2006,09,28,05,01,11.40
2006,09,28,05,02,11.40
2006,09,28,05,03,11.40
2006,09,28,05,04,11.40
2006,09,28,05,05,11.40
2006,09,28,05,06,11.40
2006,09,28,05,07,11.30
2006,09,28,05,08,11.30
2006,09,28,05,09,11.30
2006,09,28,05,10,11.30
2006,09,28,05,11,11.30
2006,09,28,05,12,11.30
2006,09,28,05,13,11.20
2006,09,28,05,14,11.20
2006,09,28,05,15,11.20
2006,09,28,05,16,11.20
2006,09,28,05,17,11.20
2006,09,28,05,18,11.20
2006,09,28,05,19,11.20
2006,09,28,05,20,11.10
2006,09,28,05,21,11.10
2006,09,28,05,22,11.10
2006,09,28,05,23,11.10
2006,09,28,05,24,11.10
2006,09,28,05,25,11.20
2006,09,28,05,26,11.10
2006,09,28,05,27,11.10
2006,09,28,05,28,11.10
2006,09,28,05,29,11.10
2006,09,28,05,30,11.10
2006,09,28,05,31,11.10
2006,09,28,05,32,11.10
2006,09,28,05,33,11.10
2006,09,28,05,34,11.00
2006,09,28,05,35,11.00
2006,09,28,05,36,11.00
2006,09,28,05,37,11.00
2006,09,28,05,38,11.00
2006,09,28,05,39,11.00
2006,09,28,05,40,11.00
2006,09,28,05,41,10.90
2006,09,28,05,42,10.90
2006,09,28,05,43,10.90
2006,09,28,05,44,10.90
2006,09,28,05,45,10.90
2006,09,28,05,46,10.90
2006,09,28,05,47,10.90
2006,09,28,05,48,10.90
2006,09,28,05,49,10.90
2006,09,28,05,50,10.90
2006,09,28,05,51,10.90
2006,09,28,05,52,10.90
2006,09,28,05,53,10.90
2006,09,28,05,54,10.90
2006,09,28,05,55,10.90
2006,09,28,05,56,10.90
2006,09,28,05,57,10.90
2006,09,28,05,58,10.90
2006,09,28,05,59,11.00
2006,09,28,06,00,11.00
2006,09,28,06,01,11.00
2006,09,28,06,02,11.10
2006,09,28,06,03,11.10
2006,09,28,06,04,11.10
2006,09,28,06,05,11.10
2006,09,28,06,06,11.00
2006,09,28,06,07,11.00
2006,09,28,06,08,11.00
2006,09,28,06,09,10.90
2006,09,28,06,10,10.90
2006,09,28,06,11,10.80
2006,09,28,06,12,10.80
2006,09,28,06,13,10.80
2006,09,28,06,14,10.70
2006,09,28,06,15,10.70
2006,09,28,06,16,10.70
2006,09,28,06,17,10.70
2006,09,28,06,18,10.70
2006,09,28,06,19,10.80
2006,09,28,06,20,10.80
2006,09,28,06,21,10.80
2006,09,28,06,22,10.80
2006,09,28,06,23,10.80
2006,09,28,06,24,10.80
2006,09,28,06,25,10.80
2006,09,28,06,26,10.80
2006,09,28,06,27,10.80
2006,09,28,06,28,10.80
2006,09,28,06,29,10.70
2006,09,28,06,30,10.70
2006,09,28,06,31,10.70
2006,09,28,06,32,10.70
2006,09,28,06,33,10.70
2006,09,28,06,34,10.70
2006,09,28,06,35,10.60
2006,09,28,06,36,10.60
2006,09,28,06,37,10.60
2006,09,28,06,38,10.60
2006,09,28,06,39,10.60
2006,09,28,06,40,10.60
2006,09,28,06,41,10.60
2006,09,28,06,42,10.60
2006,09,28,06,43,10.60
2006,09,28,06,44,10.60
2006,09,28,06,45,10.60
2006,09,28,06,46,10.60
2006,09,28,06,47,10.60
2006,09,28,06,48,10.60
2006,09,28,06,49,10.60
2006,09,28,06,50,10.60
2006,09,28,06,51,10.60
2006,09,28,06,52,10.60
2006,09,28,06,53,10.60
2006,09,28,06,54,10.60
2006,09,28,06,55,10.60
2006,09,28,06,56,10.60
2006,09,28,06,57,10.60
2006,09,28,06,58,10.60
2006,09,28,06,59,10.60
2006,09,28,07,00,10.60
2006,09,28,07,01,10.60
2006,09,28,07,02,10.60
2006,09,28,07,03,10.60
2006,09,28,07,04,10.60
2006,09,28,07,05,10.60
2006,09,28,07,06,10.50
2006,09,28,07,07,10.50
2006,09,28,07,08,10.50
2006,09,28,07,09,10.40
2006,09,28,07,10,10.50
2006,09,28,07,11,10.40
2006,09,28,07,12,10.40
2006,09,28,07,13,10.40
2006,09,28,07,14,10.40
2006,09,28,07,15,10.40
2006,09,28,07,16,10.30
2006,09,28,07,17,10.30
2006,09,28,07,18,10.30
2006,09,28,07,19,10.30
2006,09,28,07,20,10.30
2006,09,28,07,21,10.40
2006,09,28,07,22,10.40
2006,09,28,07,23,10.40
2006,09,28,07,24,10.40
2006,09,28,07,25,10.40
2006,09,28,07,26,10.40
2006,09,28,07,27,10.40
2006,09,28,07,28,10.40
2006,09,28,07,29,10.40
2006,09,28,07,30,10.40
2006,09,28,07,31,10.40
2006,09,28,07,32,10.30
2006,09,28,07,33,10.30
2006,09,28,07,34,10.30
2006,09,28,07,35,10.30
2006,09,28,07,36,10.30
2006,09,28,07,37,10.30
2006,09,28,07,38,10.30
2006,09,28,07,39,10.30
2006,09,28,07,40,10.30
2006,09,28,07,41,10.30
2006,09,28,07,42,10.40
2006,09,28,07,43,10.40
2006,09,28,07,44,10.40
2006,09,28,07,45,10.50
2006,09,28,07,46,10.50
2006,09,28,07,47,10.60
2006,09,28,07,48,10.60
2006,09,28,07,49,10.60
2006,09,28,07,50,10.60
2006,09,28,07,51,10.60
2006,09,28,07,52,10.70
2006,09,28,07,53,10.70
2006,09,28,07,54,10.70
2006,09,28,07,55,10.70
2006,09,28,07,56,10.70
2006,09,28,07,57,10.80
2006,09,28,07,58,10.80
2006,09,28,07,59,10.80
2006,09,28,08,00,10.80
2006,09,28,08,01,10.90
2006,09,28,08,02,10.90
2006,09,28,08,03,10.90
2006,09,28,08,04,11.00
2006,09,28,08,05,11.10
2006,09,28,08,06,11.10
2006,09,28,08,07,11.20
2006,09,28,08,08,11.20
2006,09,28,08,09,11.30
2006,09,28,08,10,11.40
2006,09,28,08,11,11.50
2006,09,28,08,12,11.70
2006,09,28,08,13,11.80
2006,09,28,08,14,11.90
2006,09,28,08,15,12.00
2006,09,28,08,16,12.10
2006,09,28,08,17,12.20
2006,09,28,08,18,12.20
2006,09,28,08,19,12.30
2006,09,28,08,20,12.30
2006,09,28,08,21,12.40
2006,09,28,08,22,12.40
2006,09,28,08,23,12.50
2006,09,28,08,24,12.60
2006,09,28,08,25,12.70
2006,09,28,08,26,12.80
2006,09,28,08,27,12.80
2006,09,28,08,28,12.90
2006,09,28,08,29,13.10
2006,09,28,08,30,13.20
2006,09,28,08,31,13.30
2006,09,28,08,32,13.40
2006,09,28,08,33,13.50
2006,09,28,08,34,13.70
2006,09,28,08,35,13.80
2006,09,28,08,36,13.90
2006,09,28,08,37,14.00
2006,09,28,08,38,14.10
2006,09,28,08,39,14.20
2006,09,28,08,40,14.30
2006,09,28,08,41,14.40
2006,09,28,08,42,14.50
2006,09,28,08,43,14.50
2006,09,28,08,44,14.60
2006,09,28,08,45,14.70
2006,09,28,08,46,14.70
2006,09,28,08,47,14.80
2006,09,28,08,48,14.90
2006,09,28,08,49,15.00
2006,09,28,08,50,15.00
2006,09,28,08,51,15.00
2006,09,28,08,52,15.00
2006,09,28,08,53,15.00
2006,09,28,08,54,15.00
2006,09,28,08,55,15.10
2006,09,28,08,56,15.20
2006,09,28,08,57,15.30
2006,09,28,08,58,15.40
2006,09,28,08,59,15.50
2006,09,28,09,00,15.60
2006,09,28,09,01,15.70
2006,09,28,09,02,15.80
2006,09,28,09,03,15.80
2006,09,28,09,04,15.90
2006,09,28,09,05,15.90
2006,09,28,09,06,15.90
2006,09,28,09,07,16.00
2006,09,28,09,08,16.00
2006,09,28,09,09,16.10
2006,09,28,09,10,16.10
2006,09,28,09,11,16.10
2006,09,28,09,12,16.10
2006,09,28,09,13,16.10
2006,09,28,09,14,16.10
2006,09,28,09,15,16.10
2006,09,28,09,16,16.00
2006,09,28,09,17,16.00
2006,09,28,09,18,15.90
2006,09,28,09,19,15.90
2006,09,28,09,20,15.80
2006,09,28,09,21,15.80
2006,09,28,09,22,15.80
2006,09,28,09,23,15.80
2006,09,28,09,24,15.80
2006,09,28,09,25,15.80
2006,09,28,09,26,15.80
2006,09,28,09,27,15.80
2006,09,28,09,28,15.80
2006,09,28,09,29,15.90
2006,09,28,09,30,15.90
2006,09,28,09,31,15.90
2006,09,28,09,32,16.00
2006,09,28,09,33,16.00
2006,09,28,09,34,16.10
2006,09,28,09,35,16.20
2006,09,28,09,36,16.20
2006,09,28,09,37,16.30
2006,09,28,09,38,16.30
2006,09,28,09,39,16.40
2006,09,28,09,40,16.40
2006,09,28,09,41,16.40
2006,09,28,09,42,16.40
2006,09,28,09,43,16.40
2006,09,28,09,44,16.50
2006,09,28,09,45,16.60
2006,09,28,09,46,16.60
2006,09,28,09,47,16.60
2006,09,28,09,48,16.60
2006,09,28,09,49,16.70
2006,09,28,09,50,16.70
2006,09,28,09,51,16.70
2006,09,28,09,52,16.70
2006,09,28,09,53,16.70
2006,09,28,09,54,16.80
2006,09,28,09,55,16.80
2006,09,28,09,56,16.80
2006,09,28,09,57,16.80
2006,09,28,09,58,16.80
2006,09,28,09,59,16.80
2006,09,28,10,00,16.80
2006,09,28,10,01,16.80
2006,09,28,10,02,16.80
2006,09,28,10,03,16.90
2006,09,28,10,04,16.90
2006,09,28,10,05,16.90
2006,09,28,10,06,16.90
2006,09,28,10,07,16.90
2006,09,28,10,08,16.90
2006,09,28,10,09,16.90
2006,09,28,10,10,16.90
2006,09,28,10,11,16.90
2006,09,28,10,12,17.00
2006,09,28,10,13,17.10
2006,09,28,10,14,17.10
2006,09,28,10,15,17.10
2006,09,28,10,16,17.20
2006,09,28,10,17,17.20
2006,09,28,10,18,17.30
2006,09,28,10,19,17.30
2006,09,28,10,20,17.40
2006,09,28,10,21,17.50
2006,09,28,10,22,17.60
2006,09,28,10,23,17.60
2006,09,28,10,24,17.60
2006,09,28,10,25,17.70
2006,09,28,10,26,17.70
2006,09,28,10,27,17.80
2006,09,28,10,28,17.90
2006,09,28,10,29,17.90
2006,09,28,10,30,18.00
2006,09,28,10,31,18.10
2006,09,28,10,32,18.10
2006,09,28,10,33,18.20
2006,09,28,10,34,18.30
2006,09,28,10,35,18.30
2006,09,28,10,36,18.40
2006,09,28,10,37,18.40
2006,09,28,10,38,18.40
2006,09,28,10,39,18.50
2006,09,28,10,40,18.60
2006,09,28,10,41,18.70
2006,09,28,10,42,18.90
2006,09,28,10,43,19.00
2006,09,28,10,44,19.20
2006,09,28,10,45,19.30
2006,09,28,10,46,19.30
2006,09,28,10,47,19.40
2006,09,28,10,48,19.40
2006,09,28,10,49,19.50
2006,09,28,10,50,19.60
2006,09,28,10,51,19.70
2006,09,28,10,52,19.70
2006,09,28,10,53,19.80
2006,09,28,10,54,19.80
2006,09,28,10,55,19.90
2006,09,28,10,56,20.00
2006,09,28,10,57,20.00
2006,09,28,10,58,20.10
2006,09,28,10,59,20.00
2006,09,28,11,00,20.00
2006,09,28,11,01,20.00
2006,09,28,11,02,20.00
2006,09,28,11,03,20.00
2006,09,28,11,04,20.10
2006,09,28,11,05,20.20
2006,09,28,11,06,20.20
2006,09,28,11,07,20.30
2006,09,28,11,08,20.30
2006,09,28,11,09,20.30
2006,09,28,11,10,20.40
2006,09,28,11,11,20.40
2006,09,28,11,12,20.40
2006,09,28,11,13,20.40
2006,09,28,11,14,20.40
2006,09,28,11,15,20.30
2006,09,28,11,16,20.20
2006,09,28,11,17,20.20
2006,09,28,11,18,20.20
2006,09,28,11,19,20.20
2006,09,28,11,20,20.10
2006,09,28,11,21,20.00
2006,09,28,11,22,19.90
2006,09,28,11,23,19.90
2006,09,28,11,24,19.70
2006,09,28,11,25,19.60
2006,09,28,11,26,19.40
2006,09,28,11,27,19.30
2006,09,28,11,28,19.20
2006,09,28,11,29,19.20
2006,09,28,11,30,19.20
2006,09,28,11,31,19.20
2006,09,28,11,32,19.20
2006,09,28,11,33,19.20
2006,09,28,11,34,19.20
2006,09,28,11,35,19.20
2006,09,28,11,36,19.20
2006,09,28,11,37,19.20
2006,09,28,11,38,19.10
2006,09,28,11,39,19.00
2006,09,28,11,40,18.90
2006,09,28,11,41,18.70
2006,09,28,11,42,18.60
2006,09,28,11,43,18.40
2006,09,28,11,44,18.30
2006,09,28,11,45,18.30
2006,09,28,11,46,18.40
2006,09,28,11,47,18.50
2006,09,28,11,48,18.50
2006,09,28,11,49,18.50
2006,09,28,11,50,18.50
2006,09,28,11,51,18.40
2006,09,28,11,52,18.50
2006,09,28,11,53,18.50
2006,09,28,11,54,18.60
2006,09,28,11,55,18.60
2006,09,28,11,56,18.70
2006,09,28,11,57,18.70
2006,09,28,11,58,18.70
2006,09,28,11,59,18.70
2006,09,28,12,00,18.60
2006,09,28,12,01,18.60
2006,09,28,12,02,18.70
2006,09,28,12,03,18.70
2006,09,28,12,04,18.80
2006,09,28,12,05,18.90
2006,09,28,12,06,18.90
2006,09,28,12,07,19.00
2006,09,28,12,08,18.90
2006,09,28,12,09,18.90
2006,09,28,12,10,18.80
2006,09,28,12,11,18.70
2006,09,28,12,12,18.70
2006,09,28,12,13,18.60
2006,09,28,12,14,18.60
2006,09,28,12,15,18.50
2006,09,28,12,16,18.30
2006,09,28,12,17,18.20
2006,09,28,12,18,18.20
2006,09,28,12,19,18.10
2006,09,28,12,20,18.10
2006,09,28,12,21,18.10
2006,09,28,12,22,18.10
2006,09,28,12,23,18.20
2006,09,28,12,24,18.20
2006,09,28,12,25,18.20
2006,09,28,12,26,18.30
2006,09,28,12,27,18.40
2006,09,28,12,28,18.40
2006,09,28,12,29,18.40
2006,09,28,12,30,18.50
2006,09,28,12,31,18.60
2006,09,28,12,32,18.70
2006,09,28,12,33,18.70
2006,09,28,12,34,18.70
2006,09,28,12,35,18.70
2006,09,28,12,36,18.70
2006,09,28,12,37,18.80
2006,09,28,12,38,18.70
2006,09,28,12,39,18.70
2006,09,28,12,40,18.60
2006,09,28,12,41,18.50
2006,09,28,12,42,18.50
2006,09,28,12,43,18.40
2006,09,28,12,44,18.50
2006,09,28,12,45,18.50
2006,09,28,12,46,18.60
2006,09,28,12,47,18.60
2006,09,28,12,48,18.70
2006,09,28,12,49,18.70
2006,09,28,12,50,18.80
2006,09,28,12,51,18.80
2006,09,28,12,52,18.80
2006,09,28,12,53,18.90
2006,09,28,12,54,18.90
2006,09,28,12,55,19.00
2006,09,28,12,56,19.20
2006,09,28,12,57,19.30
2006,09,28,12,58,19.50
2006,09,28,12,59,19.50
2006,09,28,13,00,19.40
2006,09,28,13,01,19.30
2006,09,28,13,02,19.20
2006,09,28,13,03,19.30
2006,09,28,13,04,19.30
2006,09,28,13,05,19.30
2006,09,28,13,06,19.30
2006,09,28,13,07,19.40
2006,09,28,13,08,19.50
2006,09,28,13,09,19.50
2006,09,28,13,10,19.50
2006,09,28,13,11,19.60
2006,09,28,13,12,19.60
2006,09,28,13,13,19.60
2006,09,28,13,14,19.50
2006,09,28,13,15,19.60
2006,09,28,13,16,19.70
2006,09,28,13,17,19.70
2006,09,28,13,18,19.70
2006,09,28,13,19,19.70
2006,09,28,13,20,19.80
2006,09,28,13,21,19.80
2006,09,28,13,22,19.80
2006,09,28,13,23,19.90
2006,09,28,13,24,19.90
2006,09,28,13,25,19.80
2006,09,28,13,26,19.80
2006,09,28,13,27,19.80
2006,09,28,13,28,19.80
2006,09,28,13,29,19.90
2006,09,28,13,30,19.90
2006,09,28,13,31,19.90
2006,09,28,13,32,19.90
2006,09,28,13,33,19.90
2006,09,28,13,34,19.80
2006,09,28,13,35,19.80
2006,09,28,13,36,19.90
2006,09,28,13,37,20.00
2006,09,28,13,38,19.90
2006,09,28,13,39,19.90
2006,09,28,13,40,19.90
2006,09,28,13,41,20.00
2006,09,28,13,42,20.00
2006,09,28,13,43,20.10
2006,09,28,13,44,20.10
2006,09,28,13,45,20.00
2006,09,28,13,46,20.00
2006,09,28,13,47,20.00
2006,09,28,13,48,20.00
2006,09,28,13,49,20.10
2006,09,28,13,50,20.10
2006,09,28,13,51,20.20
2006,09,28,13,52,20.20
2006,09,28,13,53,20.30
2006,09,28,13,54,20.40
2006,09,28,13,55,20.50
2006,09,28,13,56,20.50
2006,09,28,13,57,20.40
2006,09,28,13,58,20.50
2006,09,28,13,59,20.60
2006,09,28,14,00,20.70
2006,09,28,14,01,20.80
2006,09,28,14,02,20.80
2006,09,28,14,03,20.90
2006,09,28,14,04,20.80
2006,09,28,14,05,20.80
2006,09,28,14,06,20.80
2006,09,28,14,07,20.70
2006,09,28,14,08,20.70
2006,09,28,14,09,20.80
2006,09,28,14,10,20.90
2006,09,28,14,11,20.90
2006,09,28,14,12,20.90
2006,09,28,14,13,20.90
2006,09,28,14,14,20.90
2006,09,28,14,15,21.00
2006,09,28,14,16,21.10
2006,09,28,14,17,21.10
2006,09,28,14,18,21.20
2006,09,28,14,19,21.30
2006,09,28,14,20,21.30
2006,09,28,14,21,21.30
2006,09,28,14,22,21.40
2006,09,28,14,23,21.40
2006,09,28,14,24,21.50
2006,09,28,14,25,21.50
2006,09,28,14,26,21.60
2006,09,28,14,27,21.60
2006,09,28,14,28,21.70
2006,09,28,14,29,21.80
2006,09,28,14,30,21.90
2006,09,28,14,31,21.90
2006,09,28,14,32,21.90
2006,09,28,14,33,22.00
2006,09,28,14,34,22.00
2006,09,28,14,35,22.10
2006,09,28,14,36,22.20
2006,09,28,14,37,22.30
2006,09,28,14,38,22.40
2006,09,28,14,39,22.50
2006,09,28,14,40,22.50
2006,09,28,14,41,22.60
2006,09,28,14,42,22.60
2006,09,28,14,43,22.60
2006,09,28,14,44,22.60
2006,09,28,14,45,22.50
2006,09,28,14,46,22.50
2006,09,28,14,47,22.50
2006,09,28,14,48,22.50
2006,09,28,14,49,22.40
2006,09,28,14,50,22.30
2006,09,28,14,51,22.20
2006,09,28,14,52,22.20
2006,09,28,14,53,22.00
2006,09,28,14,54,22.00
2006,09,28,14,55,21.90
2006,09,28,14,56,21.90
2006,09,28,14,57,22.00
2006,09,28,14,58,22.10
2006,09,28,14,59,22.30
2006,09,28,15,00,22.40
2006,09,28,15,01,22.30
2006,09,28,15,02,22.30
2006,09,28,15,03,22.30
2006,09,28,15,04,22.30
2006,09,28,15,05,22.30
2006,09,28,15,06,22.30
2006,09,28,15,07,22.30
2006,09,28,15,08,22.30
2006,09,28,15,09,22.30
2006,09,28,15,10,22.30
2006,09,28,15,11,22.20
2006,09,28,15,12,21.90
2006,09,28,15,13,21.70
2006,09,28,15,14,21.60
2006,09,28,15,15,21.40
2006,09,28,15,16,21.30
2006,09,28,15,17,21.20
2006,09,28,15,18,21.20
2006,09,28,15,19,21.30
2006,09,28,15,20,21.30
2006,09,28,15,21,21.40
2006,09,28,15,22,21.50
2006,09,28,15,23,21.50
2006,09,28,15,24,21.50
2006,09,28,15,25,21.40
2006,09,28,15,26,21.40
2006,09,28,15,27,21.40
2006,09,28,15,28,21.30
2006,09,28,15,29,21.20
2006,09,28,15,30,21.20
2006,09,28,15,31,21.30
2006,09,28,15,32,21.30
2006,09,28,15,33,21.30
2006,09,28,15,34,21.30
2006,09,28,15,35,21.20
2006,09,28,15,36,21.20
2006,09,28,15,37,21.20
2006,09,28,15,38,21.30
2006,09,28,15,39,21.40
2006,09,28,15,40,21.40
2006,09,28,15,41,21.40
2006,09,28,15,42,21.50
2006,09,28,15,43,21.50
2006,09,28,15,44,21.60
2006,09,28,15,45,21.70
2006,09,28,15,46,21.60
2006,09,28,15,47,21.60
2006,09,28,15,48,21.40
2006,09,28,15,49,21.40
2006,09,28,15,50,21.40
2006,09,28,15,51,21.40
2006,09,28,15,52,21.50
2006,09,28,15,53,21.50
2006,09,28,15,54,21.50
2006,09,28,15,55,21.50
2006,09,28,15,56,21.60
2006,09,28,15,57,21.60
2006,09,28,15,58,21.60
2006,09,28,15,59,21.70
2006,09,28,16,00,21.70
2006,09,28,16,01,21.70
2006,09,28,16,02,21.60
2006,09,28,16,03,21.50
2006,09,28,16,04,21.40
2006,09,28,16,05,21.40
2006,09,28,16,06,21.40
2006,09,28,16,07,21.50
2006,09,28,16,08,21.50
2006,09,28,16,09,21.60
2006,09,28,16,10,21.70
2006,09,28,16,11,21.80
2006,09,28,16,12,21.80
2006,09,28,16,13,21.80
2006,09,28,16,14,21.80
2006,09,28,16,15,21.80
2006,09,28,16,16,21.80
2006,09,28,16,17,21.80
2006,09,28,16,18,21.80
2006,09,28,16,19,21.80
2006,09,28,16,20,21.80
2006,09,28,16,21,21.90
2006,09,28,16,22,21.90
2006,09,28,16,23,21.90
2006,09,28,16,24,21.90
2006,09,28,16,25,21.90
2006,09,28,16,26,22.00
2006,09,28,16,27,22.20
2006,09,28,16,28,22.30
2006,09,28,16,29,22.40
2006,09,28,16,30,22.50
2006,09,28,16,31,22.60
2006,09,28,16,32,22.60
2006,09,28,16,33,22.70
2006,09,28,16,34,22.70
2006,09,28,16,35,22.70
2006,09,28,16,36,22.80
2006,09,28,16,37,22.80
2006,09,28,16,38,22.80
2006,09,28,16,39,22.90
2006,09,28,16,40,22.90
2006,09,28,16,41,22.90
2006,09,28,16,42,23.00
2006,09,28,16,43,23.00
2006,09,28,16,44,23.10
2006,09,28,16,45,23.10
2006,09,28,16,46,23.00
2006,09,28,16,47,23.00
2006,09,28,16,48,22.90
2006,09,28,16,49,22.90
2006,09,28,16,50,23.00
2006,09,28,16,51,23.00
2006,09,28,16,52,23.00
2006,09,28,16,53,22.90
2006,09,28,16,54,22.90
2006,09,28,16,55,22.80
2006,09,28,16,56,22.80
2006,09,28,16,57,22.70
2006,09,28,16,58,22.70
2006,09,28,16,59,22.60
2006,09,28,17,00,22.60
2006,09,28,17,01,22.60
2006,09,28,17,02,22.60
2006,09,28,17,03,22.60
2006,09,28,17,04,22.70
2006,09,28,17,05,22.70
2006,09,28,17,06,22.60
2006,09,28,17,07,22.40
2006,09,28,17,08,22.30
2006,09,28,17,09,22.30
2006,09,28,17,10,22.20
2006,09,28,17,11,22.10
2006,09,28,17,12,22.00
2006,09,28,17,13,21.90
2006,09,28,17,14,21.80
2006,09,28,17,15,21.80
2006,09,28,17,16,21.80
2006,09,28,17,17,21.80
2006,09,28,17,18,21.70
2006,09,28,17,19,21.80